Powrót do katalogu

SCOUT D-1 R/B

AktywnyPO
NORAD 7228·ROCKET BODY·🇺🇸 United States

Wystrzelony Mar 9, 1974 z Vandenberg Space Force Base

Loading…

Następne Przeloty (najbliższe 24 godziny)

TLE

ŚwieżeSource: Space-Track

Epoka: Sep 14, 2026, 12:17 UTC

1 07228U 74013B   26257.51207298  .00000375  00000-0  11167-3 0  9994
2 07228  97.7838  85.5778 0104771 153.6027 207.0557 14.44884608730730

Śledź SCOUT D-1 R/B w czasie rzeczywistym z AllMySat

Download on the App Store